Location: St. Louis
(38.6270°N, 90.1994°W)
Time: 20:55:09
(UTC-06:00)

Vanguard 1 - Pass Details

Date: 05 December 2021
Orbit: 652 x 3830 km, 34.2° (Epoch: 21 January)

Event Time Altitude Azimuth Distance (km) Brightness Sun altitude
Exits shadow 02:01:18 61° 112° (ESE) 3,759 12.7 -57.9°
Drops below altitude 10° 02:14:27 10° 96° (E) 5,474 14.2 -55.5°
Sets 02:17:52 0° 95° (E) 6,152 14.6 -54.9°
